Kezdőlap
METAR-TAF:

METAR-TAF

Repülőterek :

Municipal_Airport

Cherokee, Iowa, Amerikai Egyesült Államok

földrajzi szélesség: 42-43-54N, földrajzi hosszúság: 095-33-21W, magasság: 374 m

Jelenlegi meteorológiai megfigyelések

A jelentés 11 perccel ezelõtt készült, 02:35 UTC
Szélcsend
Hőmérséklet 15°C
Páratartalom 67%
Légköri nyomás 1022 hPa
Látótávolság: 16.1 km
Derült ég

METAR: KCKP 300235Z AUTO 00000KT 10SM CLR 15/09 A3018 RMK AO2 T01470087

Idő: 21:46 (02:46 UTC)


TAF: hiányzik

Meteorológiai megfigyelések és előrejelzések több, mint 4000 repülőtéren (METAR és TAF jelentéseket).

A térképen piros és sárga pontok jelzik az elérhető meteorológiai állomásokat.

Mozgassa az egeret a pont fölött, hogy megjelenjen az állomás neve.

Azután kattintson az időjárási megfigyelések és előrejelzések megtekintéséhez.

A térkép megváltoztatása: kattintson a fekete keresztel jelölt zöld gombra ráközelítéshez, a vonallal jelölt zöld gombra távolításhoz, vagy a zöld nyilakra a szomszédos térképek eléréséhez.


METAR-TAF: